Total_Precipitation_Accumulation
0.03 0.03 0.02 0.01 0.01 0.02 0.02 0.02 0.01 0.01 0.00 0.00 0.00 0.00 0.00 0.00 0.00 0.00 0.00 0.00 0.01 0.02 0.03 0.03 0.03 0.03 0.03 0.04 0.04 0.05 0.04 0.04 0.04 0.04 0.03 0.02 0.02 0.02 0.02 0.02 0.03 0.04 0.06
0.02 0.02 0.02 0.02 0.01 0.01 0.02 0.01 0.00 0.01 0.00 0.00 0.00 0.00 0.00 0.00 0.00 0.00 0.01 0.01 0.02 0.02 0.03 0.05 0.05 0.07 0.06 0.07 0.08 0.07 0.07 0.07 0.07 0.07 0.07 0.06 0.05 0.04 0.04 0.04 0.04 0.04 0.05
0.02 0.02 0.04 0.03 0.02 0.01 0.02 0.02 0.01 0.01 0.01 0.01 0.01 0.01 0.01 0.01 0.02 0.02 0.02 0.02 0.03 0.04 0.05 0.07 0.07 0.08 0.07 0.08 0.09 0.09 0.08 0.08 0.09 0.09 0.09 0.09 0.08 0.07 0.06 0.06 0.06 0.06 0.05
0.03 0.04 0.05 0.04 0.04 0.03 0.04 0.05 0.05 0.05 0.05 0.04 0.04 0.04 0.04 0.04 0.04 0.04 0.04 0.04 0.03 0.04 0.04 0.05 0.06 0.07 0.07 0.08 0.09 0.10 0.10 0.10 0.12 0.12 0.12 0.12 0.12 0.11 0.11 0.10 0.09 0.09 0.08
0.06 0.06 0.07 0.07 0.07 0.07 0.09 0.11 0.13 0.12 0.12 0.11 0.09 0.07 0.06 0.04 0.05 0.05 0.04 0.04 0.04 0.04 0.03 0.04 0.05 0.05 0.06 0.07 0.07 0.08 0.10 0.13 0.15 0.15 0.15 0.17 0.19 0.19 0.16 0.15 0.14 0.12 0.11
0.14 0.13 0.14 0.15 0.15 0.16 0.17 0.19 0.19 0.15 0.12 0.10 0.07 0.05 0.05 0.04 0.04 0.04 0.04 0.03 0.03 0.03 0.02 0.02 0.03 0.04 0.07 0.08 0.09 0.08 0.10 0.14 0.19 0.19 0.16 0.18 0.23 0.22 0.19 0.18 0.18 0.17 0.15
0.34 0.29 0.26 0.26 0.23 0.21 0.17 0.13 0.11 0.10 0.09 0.06 0.05 0.03 0.02 0.02 0.01 0.01 0.01 0.01 0.01 0.01 0.01 0.01 0.01 0.01 0.03 0.06 0.09 0.09 0.10 0.13 0.19 0.20 0.18 0.22 0.26 0.25 0.22 0.20 0.20 0.19 0.20
0.49 0.42 0.35 0.26 0.21 0.16 0.13 0.11 0.09 0.06 0.04 0.03 0.03 0.02 0.01 0.00 0.00 0.00 0.00 0.00 0.00 0.00 0.00 0.01 0.01 0.01 0.00 0.01 0.02 0.07 0.10 0.07 0.06 0.11 0.18 0.24 0.26 0.25 0.25 0.25 0.24 0.22 0.22
0.55 0.45 0.36 0.27 0.19 0.14 0.12 0.10 0.08 0.07 0.04 0.02 0.01 0.02 0.02 0.01 0.00 0.00 0.00 0.00 0.00 0.00 0.00 0.00 0.00 0.00 0.00 0.00 0.00 0.01 0.05 0.08 0.05 0.05 0.12 0.21 0.22 0.22 0.24 0.26 0.27 0.28 0.29
0.49 0.40 0.32 0.26 0.21 0.18 0.13 0.07 0.04 0.04 0.03 0.01 0.01 0.01 0.01 0.02 0.02 0.01 0.00 0.00 0.00 0.00 0.00 0.00 0.00 0.00 0.00 0.00 0.00 0.01 0.02 0.05 0.06 0.05 0.08 0.12 0.17 0.17 0.18 0.19 0.23 0.27 0.29
0.40 0.34 0.30 0.27 0.23 0.15 0.08 0.03 0.02 0.02 0.01 0.01 0.01 0.01 0.01 0.01 0.02 0.03 0.02 0.01 0.00 0.00 0.00 0.00 0.00 0.00 0.00 0.01 0.02 0.03 0.04 0.06 0.07 0.08 0.08 0.08 0.10 0.13 0.16 0.18 0.22 0.26 0.29
0.35 0.30 0.25 0.19 0.12 0.07 0.04 0.02 0.02 0.01 0.01 0.02 0.01 0.01 0.02 0.02 0.02 0.03 0.03 0.02 0.01 0.00 0.00 0.00 0.00 0.00 0.01 0.01 0.03 0.05 0.09 0.12 0.12 0.13 0.11 0.10 0.09 0.10 0.13 0.18 0.23 0.28 0.34
0.25 0.18 0.12 0.08 0.05 0.03 0.02 0.01 0.01 0.01 0.01 0.02 0.02 0.02 0.02 0.02 0.03 0.04 0.06 0.05 0.03 0.01 0.00 0.00 0.00 0.00 0.01 0.01 0.04 0.08 0.15 0.13 0.12 0.12 0.10 0.09 0.08 0.07 0.07 0.09 0.14 0.20 0.28
0.12 0.08 0.06 0.04 0.03 0.02 0.02 0.02 0.01 0.01 0.02 0.03 0.03 0.04 0.04 0.04 0.05 0.07 0.10 0.12 0.11 0.06 0.02 0.00 0.00 0.00 0.01 0.04 0.11 0.14 0.20 0.12 0.10 0.07 0.06 0.05 0.04 0.04 0.05 0.06 0.07 0.10 0.15
0.06 0.04 0.03 0.03 0.02 0.03 0.03 0.03 0.03 0.03 0.04 0.05 0.05 0.05 0.06 0.06 0.07 0.08 0.10 0.13 0.17 0.16 0.09 0.02 0.02 0.03 0.06 0.13 0.24 0.27 0.27 0.19 0.13 0.09 0.06 0.05 0.04 0.04 0.04 0.04 0.05 0.06 0.07
0.04 0.04 0.04 0.04 0.03 0.03 0.03 0.04 0.04 0.05 0.06 0.07 0.08 0.08 0.08 0.08 0.08 0.09 0.09 0.11 0.17 0.24 0.20 0.07 0.03 0.04 0.09 0.14 0.28 0.33 0.36 0.32 0.22 0.14 0.09 0.06 0.05 0.05 0.05 0.05 0.05 0.06 0.08
0.03 0.04 0.04 0.04 0.03 0.03 0.03 0.05 0.06 0.07 0.07 0.07 0.07 0.08 0.07 0.08 0.09 0.09 0.10 0.11 0.13 0.19 0.22 0.11 0.05 0.06 0.11 0.18 0.26 0.29 0.30 0.28 0.25 0.23 0.16 0.12 0.10 0.09 0.08 0.07 0.08 0.11 0.15
0.04 0.04 0.04 0.04 0.03 0.03 0.05 0.06 0.07 0.06 0.07 0.07 0.07 0.07 0.07 0.07 0.08 0.07 0.08 0.09 0.11 0.16 0.24 0.20 0.10 0.06 0.09 0.15 0.20 0.22 0.21 0.20 0.22 0.27 0.21 0.14 0.11 0.11 0.14 0.11 0.09 0.12 0.19
0.05 0.05 0.04 0.04 0.05 0.05 0.07 0.06 0.06 0.06 0.06 0.06 0.06 0.07 0.08 0.08 0.07 0.06 0.08 0.10 0.12 0.16 0.22 0.24 0.14 0.10 0.13 0.19 0.26 0.26 0.22 0.26 0.25 0.24 0.20 0.15 0.13 0.14 0.37 0.43 0.20 0.16 0.20
0.06 0.06 0.06 0.05 0.06 0.06 0.05 0.04 0.03 0.03 0.04 0.04 0.05 0.07 0.08 0.09 0.09 0.11 0.12 0.13 0.17 0.19 0.20 0.21 0.16 0.11 0.14 0.18 0.25 0.32 0.32 0.29 0.28 0.19 0.21 0.19 0.17 0.24 0.62 1.17 0.64 0.32 0.27
0.08 0.07 0.07 0.06 0.05 0.04 0.02 0.00 0.00 0.01 0.01 0.02 0.04 0.07 0.08 0.09 0.13 0.15 0.15 0.16 0.21 0.24 0.25 0.26 0.22 0.18 0.16 0.21 0.26 0.30 0.31 0.32 0.28 0.21 0.24 0.23 0.36 0.67 1.18 1.86 1.44 0.81 0.58
0.08 0.06 0.04 0.02 0.02 0.01 0.00 0.00 0.00 0.00 0.01 0.02 0.05 0.06 0.04 0.04 0.05 0.06 0.11 0.17 0.24 0.29 0.33 0.35 0.31 0.25 0.18 0.20 0.28 0.35 0.36 0.37 0.31 0.19 0.20 0.27 0.55 1.25 1.94 2.34 1.99 1.25 0.95
0.04 0.03 0.02 0.01 0.01 0.01 0.00 0.00 0.00 0.00 0.02 0.04 0.07 0.06 0.04 0.03 0.05 0.08 0.11 0.14 0.18 0.24 0.34 0.41 0.38 0.27 0.23 0.26 0.39 0.49 0.44 0.42 0.40 0.26 0.23 0.31 0.64 1.47 1.90 2.20 2.07 1.42 1.13
0.03 0.02 0.02 0.01 0.02 0.01 0.00 0.00 0.00 0.01 0.02 0.04 0.05 0.06 0.07 0.06 0.07 0.11 0.12 0.16 0.17 0.19 0.28 0.35 0.36 0.32 0.33 0.36 0.44 0.48 0.44 0.44 0.35 0.22 0.24 0.40 0.73 1.37 1.58 1.65 1.83 1.48 1.21
0.02 0.01 0.01 0.02 0.02 0.03 0.00 0.00 0.00 0.01 0.02 0.02 0.03 0.04 0.06 0.07 0.09 0.12 0.16 0.22 0.23 0.29 0.46 0.64 0.64 0.58 0.59 0.58 0.48 0.40 0.42 0.45 0.41 0.26 0.24 0.41 0.69 1.08 1.24 1.29 1.37 1.40 1.30
0.01 0.01 0.01 0.02 0.03 0.04 0.01 0.00 0.01 0.02 0.02 0.02 0.02 0.02 0.05 0.08 0.10 0.14 0.18 0.27 0.34 0.43 0.65 0.84 0.75 0.67 0.59 0.57 0.54 0.42 0.45 0.55 0.51 0.38 0.29 0.38 0.55 0.74 1.00 1.14 1.04 0.99 1.06